SCP
0 -0 -0 -0 -0 -0 0 0 0 0 0 0 0 0 0 0 0 -0 0 0 0 0 0 -0 -0 -0 -0 -0 -0 -0 -0 -0 -0 -0 0 0 0 -0 -0 -0 0 -0 -0 -0 -0 -0 -0 -0 0
0 -0 -0 -0 0 0 0 0 0 0 0 0 0 -0 -0 -0 0 0 -0 0 0 -0 -0 -0 -0 -0 -0 -0 -0 -0 -0 -0 -0 -0 -0 -0 0 0 0 -0 -0 -0 -0 -0 -0 -0 -0 0 0
-0 -0 -0 -0 0 0 0 0 0 -0 -0 0 0 -0 0 -0 -0 -0 0 0 0 -0 -0 -0 -0 -0 -0 -0 -0 -0 -0 -0 -0 -0 -0 -0 -0 -0 0 0 -0 -0 -0 -0 0 -0 0 0 0
-0 -0 -0 0 0 0 0 0 0 -0 -0 -0 0 0 -0 -0 -0 0 0 -0 -0 -0 -0 -0 -0 -0 -0 -0 -0 -0 -0 -0 -0 -0 -0 -0 -0 -0 -0 -0 -0 -0 0 0 0 0 0 0 0
-0 0 0 0 0 0 0 0 0 0 0 0 -0 0 0 -0 -0 -0 -0 0 0 -0 -0 -0 -0 -0 -0 -0 -0 -0 -0 -0 -0 -0 -0 -0 -0 -0 0 0 0 0 0 0 0 0 0 0 0
-0 0 0 0 0 0 0 0 0 0 0 0 0 0 0 0 0 0 0 0 0 0 0 0 0 0 0 0 -0 -0 -0 -0 -0 0 0 0 0 0 0 0 0 0 0 0 0 0 0 0 0
0 0 0 0 0 0 0 0 0 0 0 0 0 0 0 0 0 0 0 0 0 0 -0 0 0 0 0 0 0 0 0 0 0 0 0 0 0 0 0 0 0 0 0 0 0 0 0 0 0
0 0 0 0 0 0 0 0 0 0 0 0 0 0 0 0 0 0 0 0 0 0 0 0 0 0 0 0 0 0 0 0 0 0 0 0 0 0 0 0 0 0 0 0 0 0 0 0 0
0 0 0 0 0 0 0 0 0 0 0 0 0 0 0 0 0 -0 0 0 0 0 0 0 0 0 0 0 0 0 0 0 0 0 0 0 0 0 0 0 0 0 0 0 0 0 0 0 0
0 0 0 0 0 0 0 0 0 0 0 0 0 0 0 0 0 -0 -0 0 0 0 0 0 0 0 0 0 0 0 0 0 0 0 0 0 0 0 0 0 0 0 0 0 0 0 0 0 0
0 0 0 0 0 0 0 0 0 0 0 0 0 0 0 0 0 0 0 0 0 0 0 0 0 0 0 0 0 0 0 0 0 0 0 0 0 0 0 0 0 0 0 0 0 0 0 0 0
0 0 0 0 0 0 0 0 0 0 0 0 0 0 0 0 0 0 0 0 0 0 0 0 0 0 0 0 0 0 0 0 0 0 0 0 0 0 0 0 0 0 0 0 0 0 0 0 0
0 0 0 0 0 0 0 0 0 0 0 0 0 0 0 0 0 0 0 0 0 0 0 0 0 0 0 0 0 0 0 0 0 0 0 0 0 0 0 0 0 0 0 0 0 0 0 0 0
0 0 0 0 0 0 0 0 0 0 0 0 0 0 0 0 0 0 0 0 0 0 0 0 0 0 0 0 0 0 0 0 0 0 0 0 0 0 0 0 0 0 0 0 0 0 0 0 0
0 0 0 0 0 0 0 0 0 0 0 0 0 0 0 0 0 0 0 0 0 0 0 0 0 0 0 0 0 0 0 0 0 0 0 0 0 0 0 0 0 0 0 0 0 0 0 0 0
0 0 0 0 0 0 0 0 0 0 0 0 0 0 0 0 0 0 0 0 0 0 0 0 0 0 0 0 0 0 0 0 0 0 0 0 0 0 0 0 0 0 0 0 0 0 0 0 0
0 0 0 0 0 0 0 0 0 0 0 0 0 0 0 0 0 0 0 0 0 0 0 0 0 0 0 0 0 0 0 0 0 0 0 0 0 0 0 0 0 0 0 0 0 0 0 0 0
0 0 0 0 0 0 0 0 0 0 0 0 0 0 0 0 0 0 0 0 0 0 0 0 0 0 0 0 0 0 0 0 0 0 0 0 0 0 0 0 0 0 0 0 0 0 0 0 0
0 0 0 0 0 0 0 0 0 0 0 0 0 0 0 0 0 0 0 0 0 0 0 0 0 0 0 0 0 0 0 0 0 0 0 0 0 0 0 0 0 0 0 0 0 0 0 0 0
0 0 0 0 0 0 0 0 0 0 0 0 0 0 0 0 0 0 0 0 0 0 0 0 0 0 0 0 0 0 0 0 0 0 0 0 0 0 0 0 0 0 0 0 0 0 0 0 0
0 0 0 0 0 0 0 0 0 0 0 0 0 0 0 0 0 0 0 0 0 0 0 0 0 0 0 0 0 0 0 0 0 0 0 0 0 0 0 0 0 0 0 0 0 0 0 0 0
0 0 0 0 0 0 0 0 0 0 0 0 0 0 0 0 0 0 0 0 0 0 0 0 0 0 0 0 0 0 0 0 0 0 0 0 0 0 0 0 0 0 0 0 0 0 0 0 0
0 0 0 0 0 0 0 0 0 0 0 0 0 0 0 0 0 0 0 0 0 0 0 0 0 0 0 0 0 0 0 -0 -0 0 0 0 0 0 0 0 0 0 0 0 0 0 0 0 0
0 0 0 0 0 0 0 0 0 0 0 0 0 0 0 0 0 0 0 0 0 0 0 0 0 0 0 0 0 0 0 0 0 0 0 0 0 0 0 0 0 0 0 0 0 0 0 0 0
0 0 0 0 0 0 0 0 0 0 0 0 0 0 0 0 0 0 0 0 0 0 0 0 0 0 0 0 0 0 0 0 0 0 0 0 0 0 0 0 0 0 0 0 0 0 0 0 0
0 0 0 0 0 0 0 0 0 0 0 0 0 0 0 0 0 0 0 0 0 0 0 0 0 0 -0 0 0 0 0 0 0 0 0 0 0 0 0 0 0 0 0 0 0 0 0 0 0
0 0 0 0 0 0 0 0 0 0 0 0 0 0 0 0 0 0 0 0 0 0 0 0 0 0 0 0 0 0 0 0 0 0 0 0 0 0 0 0 0 0 0 0 0 0 0 0 0
0 0 0 0 0 0 0 0 0 0 0 0 0 0 0 0 0 0 0 0 0 0 0 0 0 0 0 0 0 0 0 0 0 0 0 0 0 0 0 0 0 0 0 0 0 0 0 0 0
0 0 0 0 0 0 0 0 0 0 0 0 0 0 0 0 0 0 0 0 0 0 0 0 0 0 0 0 0 0 0 0 0 0 0 0 0 0 0 0 0 0 0 0 0 0 -0 -0 -0
0 0 0 0 0 0 0 0 0 0 0 0 0 0 0 0 0 0 0 0 0 0 0 0 0 0 0 0 0 0 0 0 0 0 0 0 0 0 0 0 0 0 0 0 0 0 -0 -0 -0
Wind_Speed_500mb
5 1 1 3 7 8 2 0 3 3 3 2 3 3 5 5 6 3 11 4 6 14 37 38 37 32 29 29 25 22 18 13 8 4 2 3 3 2 5 8 12 15 18 9 7 7 6 7 6
2 3 4 6 9 7 5 6 2 1 1 4 5 4 4 1 5 5 9 5 9 12 28 35 34 31 27 26 24 23 20 16 12 9 7 6 5 4 6 10 16 16 16 15 5 4 5 5 5
5 6 3 8 6 7 5 5 3 3 3 4 3 3 3 5 10 6 10 7 9 10 20 28 31 28 25 23 23 23 22 17 13 10 9 7 7 6 4 7 16 23 20 20 6 3 2 3 2
5 4 11 8 6 3 2 6 4 3 3 5 5 5 4 6 5 7 12 13 10 7 13 24 29 29 26 22 23 20 18 15 13 13 12 10 8 5 6 13 20 26 24 20 11 6 6 7 6
6 7 8 8 2 1 5 5 1 0 1 3 4 2 6 11 8 8 10 13 11 5 8 15 26 29 29 29 24 20 16 16 14 15 12 9 9 9 10 15 22 25 26 21 11 7 7 8 9
7 6 8 4 3 5 5 6 0 2 4 3 5 4 8 14 12 7 4 5 9 6 5 9 17 28 30 31 26 23 19 16 14 13 11 16 7 8 10 12 16 19 21 14 8 7 9 10 10
11 7 9 9 3 3 5 3 6 2 4 5 3 5 9 12 12 4 3 2 2 5 3 5 9 19 29 33 32 27 23 22 21 22 13 19 18 15 15 14 15 17 16 15 9 9 9 9 7
8 11 7 4 7 6 3 3 5 4 0 3 4 3 2 21 8 5 6 6 6 2 1 5 10 14 20 28 34 35 32 29 25 25 18 25 25 23 18 16 16 17 17 19 14 13 12 10 6
6 8 4 10 12 5 4 5 2 7 5 3 4 6 9 15 14 11 14 10 10 11 12 14 16 18 19 23 28 33 34 32 29 28 27 31 30 30 25 21 19 20 18 17 15 13 13 13 11
8 7 13 9 8 6 2 2 9 3 9 2 3 5 16 21 17 14 12 12 14 18 22 24 24 23 22 22 25 29 32 32 30 30 32 35 33 27 25 25 20 23 22 20 20 16 13 14 15
5 7 7 3 9 3 3 2 4 3 1 2 10 15 7 6 4 3 4 4 3 4 11 23 28 29 28 26 23 24 28 31 25 28 34 31 31 31 31 29 27 27 25 24 26 21 19 17 17
3 5 6 2 5 3 3 4 6 11 2 14 8 9 14 13 12 10 6 5 6 10 12 12 18 26 31 30 27 22 20 22 25 26 28 33 32 33 33 28 29 30 27 28 30 34 23 21 21
4 2 6 8 15 18 14 13 9 8 2 15 12 7 6 9 9 9 11 13 12 13 14 17 19 23 30 33 29 24 18 15 18 29 29 25 29 34 31 33 32 32 30 30 33 35 28 27 25
4 6 15 15 14 13 9 3 6 11 14 12 6 7 7 9 10 11 9 11 15 17 17 16 18 20 24 33 33 27 19 12 7 7 18 30 31 31 31 33 34 36 25 31 33 36 33 30 28
2 6 12 6 5 8 14 4 8 9 9 9 8 9 10 9 7 8 14 18 18 17 15 12 10 10 11 23 30 25 18 15 11 8 6 8 11 17 21 20 23 30 33 32 34 38 32 39 32
6 7 6 3 2 3 7 6 7 9 5 8 8 8 9 11 14 15 14 14 17 17 16 16 11 8 9 22 30 30 22 15 8 4 8 11 16 21 24 30 32 31 28 21 28 32 31 31 30
10 5 7 13 3 4 3 8 9 17 8 14 11 10 11 12 11 12 14 16 19 22 25 25 25 26 25 25 29 26 19 13 6 4 8 10 13 19 18 12 15 11 20 23 24 25 31 32 33
12 8 9 10 4 4 3 15 9 20 12 14 13 15 17 18 22 22 21 23 27 30 34 37 42 44 45 41 37 32 23 12 4 2 6 11 15 19 19 19 21 18 17 16 20 29 34 37 34
11 9 11 5 5 0 10 13 5 10 14 13 16 20 25 30 32 34 37 37 36 36 40 41 40 41 36 34 31 25 18 13 5 4 6 7 11 18 22 25 27 30 28 26 26 24 28 30 35
7 8 10 8 4 10 1 13 4 8 6 7 16 21 27 34 39 47 53 57 61 62 63 61 57 52 50 48 46 40 33 30 27 22 14 7 5 9 12 15 22 25 27 30 31 34 35 40 38
9 12 10 12 0 1 4 11 7 4 15 20 22 26 29 34 39 46 53 57 59 60 57 56 55 51 49 44 40 36 31 28 24 20 16 15 10 6 5 6 8 12 16 20 24 27 32 32 31
11 16 12 10 7 8 2 8 8 8 9 15 29 34 38 40 42 45 48 51 50 49 45 46 46 44 42 34 28 25 26 24 27 23 22 20 19 17 16 16 15 16 16 16 18 19 19 21 27
12 11 14 6 7 3 4 1 12 8 13 14 29 35 36 40 42 43 43 45 42 38 37 37 36 34 32 23 21 21 25 30 29 26 21 20 20 21 22 22 23 24 27 28 26 26 27 27 27
20 14 12 9 6 4 12 13 8 11 12 16 36 48 46 44 41 38 38 35 33 32 30 26 25 27 24 21 22 24 28 31 25 22 19 19 19 18 19 22 24 25 25 27 29 30 29 29 27
4 13 3 2 1 11 2 5 13 7 6 22 44 59 53 50 46 41 38 33 29 26 24 19 15 21 20 18 19 20 21 21 20 19 18 14 16 19 22 23 24 26 28 29 31 33 34 35 37
13 14 10 14 8 5 3 11 10 3 4 10 44 61 55 54 47 42 37 31 25 21 18 14 13 13 16 15 15 15 15 16 16 14 16 17 20 23 24 26 27 29 30 31 34 38 40 41 42
12 9 5 13 5 3 8 9 6 5 2 7 39 61 64 59 52 45 39 31 26 21 15 11 10 11 11 9 9 8 10 13 14 15 17 19 21 24 27 29 32 34 36 38 39 42 45 47 50
7 14 6 5 6 10 6 7 9 11 14 13 26 58 69 61 55 48 40 32 26 22 16 15 13 11 10 9 6 2 5 9 11 14 18 22 25 27 28 29 32 36 41 45 48 53 56 60 61
6 7 5 8 7 10 3 9 10 11 18 28 42 64 72 67 61 52 43 34 27 22 19 19 19 17 14 10 7 4 6 10 14 19 24 28 31 32 35 38 41 45 49 54 59 64 70 73 74
3 13 15 11 10 5 4 10 4 7 22 40 49 70 70 65 61 55 47 41 34 26 26 25 25 22 19 16 11 8 9 13 18 23 27 29 32 36 38 42 47 51 54 59 66 71 76 79 81
Wind_Direction_500mb
314 306 271 108 63 66 17 133 276 343 359 46 86 76 127 123 147 146 6 98 41 163 181 181 180 179 178 181 185 186 189 201 212 220 205 168 200 259 311 336 343 355 4 17 37 55 63 65 67
39 83 100 97 83 70 287 269 208 261 13 87 103 72 82 41 45 42 36 58 56 139 179 185 183 186 181 182 187 193 203 212 215 226 247 264 272 284 312 333 325 357 9 2 5 36 38 48 48
69 55 72 87 105 147 174 238 251 325 78 103 109 68 68 30 42 58 35 76 64 123 170 190 192 190 192 196 198 202 202 204 214 232 246 255 263 264 300 322 327 341 350 352 327 316 327 335 359
45 71 64 77 107 187 70 308 252 350 71 53 85 67 53 29 41 50 58 61 56 111 155 190 200 202 200 206 197 196 195 210 226 239 251 261 255 246 288 302 312 318 324 333 316 302 295 294 293
47 67 59 83 314 227 254 287 331 40 74 53 57 19 64 41 58 62 54 49 43 82 158 189 204 209 209 214 212 210 209 212 240 232 244 254 253 274 302 311 313 310 313 324 305 299 297 298 294
75 70 65 156 248 292 267 345 134 24 57 72 73 60 75 68 54 45 42 29 35 56 162 190 206 215 220 223 229 227 231 234 238 241 233 259 242 286 300 301 327 331 315 299 310 311 313 310 308
102 78 163 158 201 289 203 4 136 108 360 74 54 99 133 48 15 328 324 289 20 58 84 211 224 223 225 227 233 231 234 247 241 257 234 248 271 288 301 300 314 325 334 334 332 322 319 318 318
98 93 114 194 181 205 14 100 110 63 118 9 25 73 39 336 9 172 203 228 222 201 242 251 248 243 238 234 234 236 241 244 242 254 246 249 260 273 281 291 298 316 328 344 346 336 327 315 301
97 66 159 193 162 190 68 57 190 312 284 12 51 54 318 295 274 240 210 220 228 228 233 232 238 247 247 241 241 241 242 242 243 241 244 249 261 270 272 277 287 298 306 318 330 326 326 308 292
84 107 213 192 193 141 82 100 313 326 320 9 347 301 291 271 269 251 233 235 240 239 244 245 243 238 240 247 242 239 240 239 242 245 249 256 264 263 277 287 284 290 292 301 308 316 308 297 288
127 164 193 232 209 225 156 284 203 232 22 125 316 327 39 77 100 169 228 278 286 260 255 248 241 237 236 236 242 244 237 241 237 243 242 251 262 265 275 277 279 288 301 306 303 300 305 293 281
104 184 198 260 197 220 275 281 270 232 154 298 277 103 74 76 75 67 49 0 323 308 302 287 257 243 238 237 231 241 241 235 236 238 252 260 259 268 273 284 283 283 293 302 311 305 289 289 279
149 265 205 247 264 275 266 259 263 328 173 133 141 140 81 47 27 12 353 337 325 311 296 287 272 255 239 235 229 227 240 246 239 238 244 251 261 268 277 282 283 283 295 299 308 315 307 290 284
178 277 282 276 253 253 207 204 170 95 131 132 124 80 41 5 360 352 335 333 324 322 312 297 287 275 253 228 222 209 215 228 263 259 252 255 255 260 273 281 284 280 294 297 303 314 306 290 285
115 311 316 286 278 215 170 124 76 103 141 92 51 23 13 15 16 4 353 345 344 341 341 336 316 304 248 211 201 192 196 207 207 203 199 229 248 257 261 274 279 267 280 293 292 307 307 308 287
59 50 344 316 359 343 172 228 161 30 235 80 61 49 35 26 21 20 25 30 32 23 21 26 34 60 115 152 163 170 179 180 174 247 275 276 262 256 258 254 258 261 258 274 297 297 298 306 302
9 222 220 315 10 153 137 248 95 26 81 84 72 70 66 60 54 65 79 77 69 64 68 71 78 89 94 118 132 138 144 153 152 221 272 321 302 288 287 297 286 301 271 265 275 272 287 290 286
194 202 240 234 234 132 192 270 81 43 71 97 103 97 89 84 78 80 83 84 83 80 81 81 86 92 100 105 111 115 116 128 156 330 319 324 313 324 341 318 332 321 318 313 298 284 292 286 287
136 170 209 211 243 310 252 256 47 80 84 105 108 104 99 93 90 92 92 93 96 98 93 91 92 89 91 100 105 113 124 120 85 27 22 353 320 311 320 320 319 315 314 318 319 322 320 319 314
149 161 237 283 207 175 338 263 93 70 91 125 125 111 104 101 101 100 101 101 98 94 93 93 92 92 89 87 84 87 90 91 85 82 75 68 348 313 306 302 304 308 305 301 299 300 304 305 310
203 188 194 213 248 80 344 281 198 99 129 139 142 135 128 119 111 108 106 101 97 91 87 85 85 84 80 80 81 83 88 94 97 90 84 77 69 44 4 341 324 305 299 295 298 304 302 303 300
205 200 172 158 127 230 99 270 264 182 173 179 166 161 150 140 131 122 115 109 100 91 88 87 82 75 75 81 85 96 101 105 92 79 68 60 51 44 36 26 18 10 5 350 344 337 330 322 311
223 129 149 133 131 88 242 152 257 138 217 201 196 179 165 151 143 136 127 118 108 101 96 89 81 73 76 80 98 95 90 85 81 73 61 53 47 38 33 29 26 19 18 18 14 8 1 347 339
147 84 55 57 83 270 215 182 248 195 198 179 189 186 176 163 154 147 135 122 112 101 94 91 82 66 73 81 85 81 83 89 85 72 55 42 37 31 27 20 14 13 9 4 3 3 358 357 352
189 118 138 349 238 230 75 164 257 220 191 187 184 188 181 171 166 158 147 136 126 121 115 107 91 87 91 94 94 95 99 89 67 49 39 36 26 19 17 13 7 2 2 358 354 349 347 344 341
188 172 165 199 199 222 7 223 247 138 222 231 195 186 181 180 174 166 158 151 144 139 135 127 115 103 104 106 101 102 85 54 40 35 25 11 8 7 6 359 355 352 351 349 345 343 339 336 331
183 190 148 105 59 81 210 274 252 151 126 155 178 186 190 187 182 176 169 167 162 160 159 158 145 132 121 110 99 93 54 37 28 21 16 9 3 357 353 348 347 345 343 341 339 336 332 328 325
164 151 90 3 189 244 260 266 235 212 193 163 179 190 194 191 190 186 184 182 179 178 180 187 179 180 172 166 147 75 36 16 12 6 354 350 346 341 336 333 332 332 332 332 332 330 327 325 322
149 167 79 127 154 177 235 249 216 212 176 187 194 195 195 195 196 197 195 195 197 197 200 206 203 197 196 197 223 272 335 349 348 343 340 337 335 331 329 329 329 329 329 330 329 328 326 324 321
197 182 167 163 213 241 163 253 154 230 195 187 195 198 199 200 202 203 206 209 214 217 216 215 214 215 217 228 240 269 300 315 319 320 321 322 322 322 322 324 326 327 327 327 326 325 324 322 320
Wind_Speed_850mb
5 1 1 3 7 8 2 0 3 3 3 2 3 3 5 5 6 3 11 4 6 14 37 38 37 32 29 29 25 22 18 13 8 4 2 3 3 2 5 8 12 15 18 9 7 7 6 7 6
2 3 4 6 9 7 5 6 2 1 1 4 5 4 4 1 5 5 9 5 9 12 28 35 34 31 27 26 24 23 20 16 12 9 7 6 5 4 6 10 16 16 16 15 5 4 5 5 5
5 6 3 8 6 7 5 5 3 3 3 4 3 3 3 5 10 6 10 7 9 10 20 28 31 28 25 23 23 23 22 17 13 10 9 7 7 6 4 7 16 23 20 20 6 3 2 3 2
5 4 11 8 6 3 2 6 4 3 3 5 5 5 4 6 5 7 12 13 10 7 13 24 29 29 26 22 23 20 18 15 13 13 12 10 8 5 6 13 20 26 24 20 11 6 6 7 6
6 7 8 8 2 1 5 5 1 0 1 3 4 2 6 11 8 8 10 13 11 5 8 15 26 29 29 29 24 20 16 16 14 15 12 9 9 9 10 15 22 25 26 21 11 7 7 8 9
7 6 8 4 3 5 5 6 0 2 4 3 5 4 8 14 12 7 4 5 9 6 5 9 17 28 30 31 26 23 19 16 14 13 11 16 7 8 10 12 16 19 21 14 8 7 9 10 10
11 7 9 9 3 3 5 3 6 2 4 5 3 5 9 12 12 4 3 2 2 5 3 5 9 19 29 33 32 27 23 22 21 22 13 19 18 15 15 14 15 17 16 15 9 9 9 9 7
8 11 7 4 7 6 3 3 5 4 0 3 4 3 2 21 8 5 6 6 6 2 1 5 10 14 20 28 34 35 32 29 25 25 18 25 25 23 18 16 16 17 17 19 14 13 12 10 6
6 8 4 10 12 5 4 5 2 7 5 3 4 6 9 15 14 11 14 10 10 11 12 14 16 18 19 23 28 33 34 32 29 28 27 31 30 30 25 21 19 20 18 17 15 13 13 13 11
8 7 13 9 8 6 2 2 9 3 9 2 3 5 16 21 17 14 12 12 14 18 22 24 24 23 22 22 25 29 32 32 30 30 32 35 33 27 25 25 20 23 22 20 20 16 13 14 15
5 7 7 3 9 3 3 2 4 3 1 2 10 15 7 6 4 3 4 4 3 4 11 23 28 29 28 26 23 24 28 31 25 28 34 31 31 31 31 29 27 27 25 24 26 21 19 17 17
3 5 6 2 5 3 3 4 6 11 2 14 8 9 14 13 12 10 6 5 6 10 12 12 18 26 31 30 27 22 20 22 25 26 28 33 32 33 33 28 29 30 27 28 30 34 23 21 21
4 2 6 8 15 18 14 13 9 8 2 15 12 7 6 9 9 9 11 13 12 13 14 17 19 23 30 33 29 24 18 15 18 29 29 25 29 34 31 33 32 32 30 30 33 35 28 27 25
4 6 15 15 14 13 9 3 6 11 14 12 6 7 7 9 10 11 9 11 15 17 17 16 18 20 24 33 33 27 19 12 7 7 18 30 31 31 31 33 34 36 25 31 33 36 33 30 28
2 6 12 6 5 8 14 4 8 9 9 9 8 9 10 9 7 8 14 18 18 17 15 12 10 10 11 23 30 25 18 15 11 8 6 8 11 17 21 20 23 30 33 32 34 38 32 39 32
6 7 6 3 2 3 7 6 7 9 5 8 8 8 9 11 14 15 14 14 17 17 16 16 11 8 9 22 30 30 22 15 8 4 8 11 16 21 24 30 32 31 28 21 28 32 31 31 30
10 5 7 13 3 4 3 8 9 17 8 14 11 10 11 12 11 12 14 16 19 22 25 25 25 26 25 25 29 26 19 13 6 4 8 10 13 19 18 12 15 11 20 23 24 25 31 32 33
12 8 9 10 4 4 3 15 9 20 12 14 13 15 17 18 22 22 21 23 27 30 34 37 42 44 45 41 37 32 23 12 4 2 6 11 15 19 19 19 21 18 17 16 20 29 34 37 34
11 9 11 5 5 0 10 13 5 10 14 13 16 20 25 30 32 34 37 37 36 36 40 41 40 41 36 34 31 25 18 13 5 4 6 7 11 18 22 25 27 30 28 26 26 24 28 30 35
7 8 10 8 4 10 1 13 4 8 6 7 16 21 27 34 39 47 53 57 61 62 63 61 57 52 50 48 46 40 33 30 27 22 14 7 5 9 12 15 22 25 27 30 31 34 35 40 38
9 12 10 12 0 1 4 11 7 4 15 20 22 26 29 34 39 46 53 57 59 60 57 56 55 51 49 44 40 36 31 28 24 20 16 15 10 6 5 6 8 12 16 20 24 27 32 32 31
11 16 12 10 7 8 2 8 8 8 9 15 29 34 38 40 42 45 48 51 50 49 45 46 46 44 42 34 28 25 26 24 27 23 22 20 19 17 16 16 15 16 16 16 18 19 19 21 27
12 11 14 6 7 3 4 1 12 8 13 14 29 35 36 40 42 43 43 45 42 38 37 37 36 34 32 23 21 21 25 30 29 26 21 20 20 21 22 22 23 24 27 28 26 26 27 27 27
20 14 12 9 6 4 12 13 8 11 12 16 36 48 46 44 41 38 38 35 33 32 30 26 25 27 24 21 22 24 28 31 25 22 19 19 19 18 19 22 24 25 25 27 29 30 29 29 27
4 13 3 2 1 11 2 5 13 7 6 22 44 59 53 50 46 41 38 33 29 26 24 19 15 21 20 18 19 20 21 21 20 19 18 14 16 19 22 23 24 26 28 29 31 33 34 35 37
13 14 10 14 8 5 3 11 10 3 4 10 44 61 55 54 47 42 37 31 25 21 18 14 13 13 16 15 15 15 15 16 16 14 16 17 20 23 24 26 27 29 30 31 34 38 40 41 42
12 9 5 13 5 3 8 9 6 5 2 7 39 61 64 59 52 45 39 31 26 21 15 11 10 11 11 9 9 8 10 13 14 15 17 19 21 24 27 29 32 34 36 38 39 42 45 47 50
7 14 6 5 6 10 6 7 9 11 14 13 26 58 69 61 55 48 40 32 26 22 16 15 13 11 10 9 6 2 5 9 11 14 18 22 25 27 28 29 32 36 41 45 48 53 56 60 61
6 7 5 8 7 10 3 9 10 11 18 28 42 64 72 67 61 52 43 34 27 22 19 19 19 17 14 10 7 4 6 10 14 19 24 28 31 32 35 38 41 45 49 54 59 64 70 73 74
3 13 15 11 10 5 4 10 4 7 22 40 49 70 70 65 61 55 47 41 34 26 26 25 25 22 19 16 11 8 9 13 18 23 27 29 32 36 38 42 47 51 54 59 66 71 76 79 81
Wind_Direction_850mb
314 306 271 108 63 66 17 133 276 343 359 46 86 76 127 123 147 146 6 98 41 163 181 181 180 179 178 181 185 186 189 201 212 220 205 168 200 259 311 336 343 355 4 17 37 55 63 65 67
39 83 100 97 83 70 287 269 208 261 13 87 103 72 82 41 45 42 36 58 56 139 179 185 183 186 181 182 187 193 203 212 215 226 247 264 272 284 312 333 325 357 9 2 5 36 38 48 48
69 55 72 87 105 147 174 238 251 325 78 103 109 68 68 30 42 58 35 76 64 123 170 190 192 190 192 196 198 202 202 204 214 232 246 255 263 264 300 322 327 341 350 352 327 316 327 335 359
45 71 64 77 107 187 70 308 252 350 71 53 85 67 53 29 41 50 58 61 56 111 155 190 200 202 200 206 197 196 195 210 226 239 251 261 255 246 288 302 312 318 324 333 316 302 295 294 293
47 67 59 83 314 227 254 287 331 40 74 53 57 19 64 41 58 62 54 49 43 82 158 189 204 209 209 214 212 210 209 212 240 232 244 254 253 274 302 311 313 310 313 324 305 299 297 298 294
75 70 65 156 248 292 267 345 134 24 57 72 73 60 75 68 54 45 42 29 35 56 162 190 206 215 220 223 229 227 231 234 238 241 233 259 242 286 300 301 327 331 315 299 310 311 313 310 308
102 78 163 158 201 289 203 4 136 108 360 74 54 99 133 48 15 328 324 289 20 58 84 211 224 223 225 227 233 231 234 247 241 257 234 248 271 288 301 300 314 325 334 334 332 322 319 318 318
98 93 114 194 181 205 14 100 110 63 118 9 25 73 39 336 9 172 203 228 222 201 242 251 248 243 238 234 234 236 241 244 242 254 246 249 260 273 281 291 298 316 328 344 346 336 327 315 301
97 66 159 193 162 190 68 57 190 312 284 12 51 54 318 295 274 240 210 220 228 228 233 232 238 247 247 241 241 241 242 242 243 241 244 249 261 270 272 277 287 298 306 318 330 326 326 308 292
84 107 213 192 193 141 82 100 313 326 320 9 347 301 291 271 269 251 233 235 240 239 244 245 243 238 240 247 242 239 240 239 242 245 249 256 264 263 277 287 284 290 292 301 308 316 308 297 288
127 164 193 232 209 225 156 284 203 232 22 125 316 327 39 77 100 169 228 278 286 260 255 248 241 237 236 236 242 244 237 241 237 243 242 251 262 265 275 277 279 288 301 306 303 300 305 293 281
104 184 198 260 197 220 275 281 270 232 154 298 277 103 74 76 75 67 49 0 323 308 302 287 257 243 238 237 231 241 241 235 236 238 252 260 259 268 273 284 283 283 293 302 311 305 289 289 279
149 265 205 247 264 275 266 259 263 328 173 133 141 140 81 47 27 12 353 337 325 311 296 287 272 255 239 235 229 227 240 246 239 238 244 251 261 268 277 282 283 283 295 299 308 315 307 290 284
178 277 282 276 253 253 207 204 170 95 131 132 124 80 41 5 360 352 335 333 324 322 312 297 287 275 253 228 222 209 215 228 263 259 252 255 255 260 273 281 284 280 294 297 303 314 306 290 285
115 311 316 286 278 215 170 124 76 103 141 92 51 23 13 15 16 4 353 345 344 341 341 336 316 304 248 211 201 192 196 207 207 203 199 229 248 257 261 274 279 267 280 293 292 307 307 308 287
59 50 344 316 359 343 172 228 161 30 235 80 61 49 35 26 21 20 25 30 32 23 21 26 34 60 115 152 163 170 179 180 174 247 275 276 262 256 258 254 258 261 258 274 297 297 298 306 302
9 222 220 315 10 153 137 248 95 26 81 84 72 70 66 60 54 65 79 77 69 64 68 71 78 89 94 118 132 138 144 153 152 221 272 321 302 288 287 297 286 301 271 265 275 272 287 290 286
194 202 240 234 234 132 192 270 81 43 71 97 103 97 89 84 78 80 83 84 83 80 81 81 86 92 100 105 111 115 116 128 156 330 319 324 313 324 341 318 332 321 318 313 298 284 292 286 287
136 170 209 211 243 310 252 256 47 80 84 105 108 104 99 93 90 92 92 93 96 98 93 91 92 89 91 100 105 113 124 120 85 27 22 353 320 311 320 320 319 315 314 318 319 322 320 319 314
149 161 237 283 207 175 338 263 93 70 91 125 125 111 104 101 101 100 101 101 98 94 93 93 92 92 89 87 84 87 90 91 85 82 75 68 348 313 306 302 304 308 305 301 299 300 304 305 310
203 188 194 213 248 80 344 281 198 99 129 139 142 135 128 119 111 108 106 101 97 91 87 85 85 84 80 80 81 83 88 94 97 90 84 77 69 44 4 341 324 305 299 295 298 304 302 303 300
205 200 172 158 127 230 99 270 264 182 173 179 166 161 150 140 131 122 115 109 100 91 88 87 82 75 75 81 85 96 101 105 92 79 68 60 51 44 36 26 18 10 5 350 344 337 330 322 311
223 129 149 133 131 88 242 152 257 138 217 201 196 179 165 151 143 136 127 118 108 101 96 89 81 73 76 80 98 95 90 85 81 73 61 53 47 38 33 29 26 19 18 18 14 8 1 347 339
147 84 55 57 83 270 215 182 248 195 198 179 189 186 176 163 154 147 135 122 112 101 94 91 82 66 73 81 85 81 83 89 85 72 55 42 37 31 27 20 14 13 9 4 3 3 358 357 352
189 118 138 349 238 230 75 164 257 220 191 187 184 188 181 171 166 158 147 136 126 121 115 107 91 87 91 94 94 95 99 89 67 49 39 36 26 19 17 13 7 2 2 358 354 349 347 344 341
188 172 165 199 199 222 7 223 247 138 222 231 195 186 181 180 174 166 158 151 144 139 135 127 115 103 104 106 101 102 85 54 40 35 25 11 8 7 6 359 355 352 351 349 345 343 339 336 331
183 190 148 105 59 81 210 274 252 151 126 155 178 186 190 187 182 176 169 167 162 160 159 158 145 132 121 110 99 93 54 37 28 21 16 9 3 357 353 348 347 345 343 341 339 336 332 328 325
164 151 90 3 189 244 260 266 235 212 193 163 179 190 194 191 190 186 184 182 179 178 180 187 179 180 172 166 147 75 36 16 12 6 354 350 346 341 336 333 332 332 332 332 332 330 327 325 322
149 167 79 127 154 177 235 249 216 212 176 187 194 195 195 195 196 197 195 195 197 197 200 206 203 197 196 197 223 272 335 349 348 343 340 337 335 331 329 329 329 329 329 330 329 328 326 324 321
197 182 167 163 213 241 163 253 154 230 195 187 195 198 199 200 202 203 206 209 214 217 216 215 214 215 217 228 240 269 300 315 319 320 321 322 322 322 322 324 326 327 327 327 326 325 324 322 320